Weather History for KJKJ - March, 2013

Change the Weather History Date:

Wednesday, March 13, 2013

  Actual Average (KFAR) Record (KFAR)
Temperature  
Mean Temperature 11 °F 26 °F  
Max Temperature 24 °F 34 °F 64 °F (1911)
Min Temperature -2 °F 18 °F -28 °F (1896)
Degree Days  
Heating Degree Days 54 39  
Month to date heating degree days 543  
Since 1 July heating degree days 7221  
Cooling Degree Days 0 0  
Month to date cooling degree days 0  
Year to date cooling degree days 0  
Moisture  
Dew Point 8 °F    
Average Humidity 90    
Maximum Humidity 100    
Minimum Humidity 79    
Precipitation  
Precipitation 0.00 in 0.04 in 0.45 in (1997)
Month to date precipitation 0.51  
Year to date precipitation 1.82  
Snow  
Snow 0.00 in 0.40 in 7.00 in (1997)
Month to date snowfall 4.7  
Since 1 July snowfall 42.7  
Snow Depth -    
Sea Level Pressure  
Sea Level Pressure 30.29 in    
Wind  
Wind Speed 6 mph (South)    
Max Wind Speed 17 mph    
Max Gust Speed 21 mph    
Visibility 9 miles    
Events Snow    
T = Trace of Precipitation, MM = Missing Value Source: NWS Daily Summary

Daily Weather History Graph

Daily Weather History Graph

Search for Another Location

Airport or City:

Trip Planner

Search our weather history database for the weather conditions in past years. The results will help you decide how hot, cold, wet, or windy it might be!

Date:

Astronomy

Mar. 13, 2013 Rise Set
Actual Time 7:42 AM CDT 7:29 PM CDT
Civil Twilight 7:12 AM CDT 8:00 PM CDT
Nautical Twilight 6:37 AM CDT 8:35 PM CDT
Astronomical Twilight 6:01 AM CDT 9:11 PM CDT
Moon 8:13 AM CDT (3/13) 9:59 PM CDT (3/13)
Length of Visible Light 12h 47m
Length of Day
11h 47m
Waxing Crescent, 4% of the Moon is Illuminated
Mar 13
Waxing Crescent
Mar 19
First Quarter
Mar 27
Full
Apr 2
Last Quarter
Apr 10
New

Hourly Weather History & Observations

Time (CDT) Temp. Windchill Dew Point Humidity Pressure Visibility Wind Dir Wind Speed Gust Speed Precip Events Conditions
12:15 AM 6.8 °F -3.5 °F 6.8 °F 100% 30.32 in 10.0 mi WNW 5.8 mph - N/A   Clear
12:55 AM 6.8 °F -2.0 °F 6.8 °F 100% 30.32 in 10.0 mi NW 4.6 mph - N/A   Clear
1:14 AM 6.8 °F -2.0 °F 6.8 °F 100% 30.33 in 10.0 mi NW 4.6 mph - N/A   Clear
1:35 AM 5.0 °F -4.1 °F 3.2 °F 92% 30.32 in 10.0 mi NNW 4.6 mph - N/A   Clear
1:55 AM 3.2 °F -10.3 °F 3.2 °F 100% 30.33 in 10.0 mi NW 8.1 mph - N/A   Clear
2:35 AM 5.0 °F -8.1 °F 3.2 °F 92% 30.33 in 10.0 mi NW 8.1 mph - N/A   Clear
2:55 AM 3.2 °F -10.3 °F 3.2 °F 100% 30.33 in 10.0 mi NW 8.1 mph - N/A   Clear
3:14 AM 3.2 °F -7.8 °F 1.4 °F 92% 30.33 in 10.0 mi NNW 5.8 mph - N/A   Clear
3:55 AM 3.2 °F -4.2 °F 1.4 °F 92% 30.33 in 10.0 mi NW 3.5 mph - N/A   Clear
4:14 AM 1.4 °F -9.9 °F 1.4 °F 100% 30.33 in 5.0 mi NW 5.8 mph - N/A   Clear
4:35 AM 3.2 °F -4.2 °F 1.4 °F 92% 30.33 in 10.0 mi WNW 3.5 mph - N/A   Clear
4:54 AM 3.2 °F - 1.4 °F 92% 30.34 in 10.0 mi Calm Calm - N/A   Clear
5:15 AM 1.4 °F - -0.4 °F 92% 30.34 in 1.8 mi Calm Calm - N/A   Clear
5:35 AM 3.2 °F - 1.4 °F 92% 30.34 in 10.0 mi Calm Calm - N/A   Clear
5:54 AM 1.4 °F - -0.4 °F 92% 30.34 in 10.0 mi Calm Calm - N/A   Clear
6:15 AM -0.4 °F - -2.2 °F 92% 30.34 in 10.0 mi Calm Calm - N/A   Clear
6:35 AM -0.4 °F - -2.2 °F 92% 30.35 in 10.0 mi Calm Calm - N/A   Clear
6:54 AM -0.4 °F - -2.2 °F 92% 30.35 in 10.0 mi Calm Calm - N/A   Clear
7:15 AM -2.2 °F - -4.0 °F 92% 30.35 in 10.0 mi Calm Calm - N/A   Clear
7:35 AM -2.2 °F - -4.0 °F 92% 30.35 in 10.0 mi Calm Calm - N/A   Clear
7:54 AM -2.2 °F - -5.8 °F 85% 30.36 in 7.0 mi Calm Calm - N/A   Clear
8:15 AM -2.2 °F - -4.0 °F 92% 30.36 in 10.0 mi Calm Calm - N/A   Clear
8:34 AM -2.2 °F - -4.0 °F 92% 30.37 in 10.0 mi Calm Calm - N/A   Clear
8:55 AM -0.4 °F - -2.2 °F 92% 30.37 in 4.0 mi Calm Calm - N/A   Clear
9:15 AM 1.4 °F - -0.4 °F 92% 30.37 in 7.0 mi Calm Calm - N/A   Clear
9:34 AM 1.4 °F - -0.4 °F 92% 30.38 in 7.0 mi Calm Calm - N/A   Clear
9:55 AM 1.4 °F -6.2 °F -0.4 °F 92% 30.37 in 10.0 mi SSE 3.5 mph - N/A   Clear
10:15 AM 1.4 °F -6.2 °F -0.4 °F 92% 30.37 in 4.0 mi South 3.5 mph - N/A   Clear
10:34 AM 3.2 °F - 1.4 °F 92% 30.37 in 10.0 mi Calm Calm - N/A   Clear
10:55 AM 3.2 °F - 1.4 °F 92% 30.37 in 10.0 mi Calm Calm - N/A   Clear
11:15 AM 6.8 °F - 3.2 °F 85% 30.37 in 10.0 mi Calm Calm - N/A   Clear
11:34 AM 6.8 °F -0.1 °F 5.0 °F 92% 30.36 in 10.0 mi South 3.5 mph - N/A   Clear
11:55 AM 6.8 °F - 6.8 °F 100% 30.37 in 10.0 mi Calm Calm - N/A   Clear
12:15 PM 8.6 °F 2.0 °F 6.8 °F 92% 30.37 in 10.0 mi SSE 3.5 mph - N/A   Clear
12:34 PM 10.4 °F 2.2 °F 6.8 °F 85% 30.37 in 10.0 mi SSW 4.6 mph - N/A   Clear
12:55 PM 10.4 °F 2.2 °F 6.8 °F 85% 30.37 in 10.0 mi South 4.6 mph - N/A   Clear
1:14 PM 12.2 °F 1.7 °F 8.6 °F 85% 30.36 in 10.0 mi South 6.9 mph - N/A   Clear
1:35 PM 12.2 °F 0.7 °F 8.6 °F 85% 30.35 in 10.0 mi SSE 8.1 mph - N/A   Clear
1:55 PM 12.2 °F 1.7 °F 10.4 °F 92% 30.34 in 10.0 mi South 6.9 mph - N/A   Clear
2:14 PM 14.0 °F 2.9 °F 10.4 °F 86% 30.33 in 10.0 mi South 8.1 mph - N/A   Clear
2:35 PM 15.8 °F 5.1 °F 10.4 °F 79% 30.32 in 10.0 mi South 8.1 mph - N/A   Clear
2:55 PM 15.8 °F 5.1 °F 10.4 °F 79% 30.31 in 10.0 mi South 8.1 mph - N/A   Clear
3:14 PM 15.8 °F 3.4 °F 12.2 °F 86% 30.29 in 10.0 mi SSE 10.4 mph - N/A   Clear
3:35 PM 15.8 °F 4.2 °F 12.2 °F 86% 30.28 in 10.0 mi SSE 9.2 mph - N/A   Clear
3:54 PM 15.8 °F 5.1 °F 12.2 °F 86% 30.28 in 10.0 mi SSE 8.1 mph - N/A   Clear
4:15 PM 15.8 °F 4.2 °F 12.2 °F 86% 30.28 in 10.0 mi SSE 9.2 mph - N/A   Clear
4:35 PM 15.8 °F 6.1 °F 12.2 °F 86% 30.27 in 10.0 mi SSE 6.9 mph - N/A   Clear
4:54 PM 17.6 °F 7.3 °F 12.2 °F 79% 30.28 in 10.0 mi South 8.1 mph - N/A   Clear
5:15 PM 17.6 °F 6.4 °F 14.0 °F 86% 30.27 in 10.0 mi South 9.2 mph - N/A   Scattered Clouds
5:35 PM 17.6 °F 7.3 °F 15.8 °F 93% 30.26 in 10.0 mi South 8.1 mph - N/A   Mostly Cloudy
5:54 PM 17.6 °F 5.0 °F 14.0 °F 86% 30.25 in 10.0 mi South 11.5 mph - N/A   Mostly Cloudy
6:15 PM 17.6 °F 3.7 °F 15.8 °F 93% 30.23 in 10.0 mi SSE 13.8 mph - N/A   Mostly Cloudy
6:35 PM 19.4 °F 6.0 °F 15.8 °F 86% 30.22 in 10.0 mi SSE 13.8 mph - N/A   Mostly Cloudy
6:54 PM 19.4 °F 7.2 °F 15.8 °F 86% 30.22 in 10.0 mi South 11.5 mph - N/A   Overcast
7:15 PM 19.4 °F 7.2 °F 15.8 °F 86% 30.21 in 10.0 mi South 11.5 mph - N/A   Overcast
7:34 PM 19.4 °F 6.0 °F 15.8 °F 86% 30.20 in 10.0 mi SSE 13.8 mph - N/A   Overcast
7:55 PM 21.2 °F 7.8 °F 17.6 °F 86% 30.19 in 10.0 mi SSE 15.0 mph 20.7 mph N/A   Overcast
8:15 PM 21.2 °F 7.8 °F 17.6 °F 86% 30.18 in 10.0 mi SSE 15.0 mph - N/A   Overcast
8:34 PM 21.2 °F 6.8 °F 17.6 °F 86% 30.16 in 10.0 mi SSE 17.3 mph - N/A   Overcast
8:55 PM 21.2 °F 8.3 °F 17.6 °F 86% 30.17 in 10.0 mi SSE 13.8 mph - N/A   Overcast
9:15 PM 21.2 °F 7.3 °F 17.6 °F 86% 30.15 in 10.0 mi SSE 16.1 mph - N/A   Mostly Cloudy
9:34 PM 21.2 °F 7.8 °F 17.6 °F 86% 30.15 in 10.0 mi SSE 15.0 mph - N/A   Scattered Clouds
9:55 PM 21.2 °F 7.8 °F 17.6 °F 86% 30.15 in 10.0 mi SSE 15.0 mph - N/A   Clear
10:14 PM 21.2 °F 8.3 °F 19.4 °F 93% 30.14 in 10.0 mi SSE 13.8 mph - N/A   Clear
10:35 PM 23.0 °F 11.1 °F 19.4 °F 86% 30.14 in 10.0 mi SSE 12.7 mph - N/A   Mostly Cloudy
10:55 PM 24.8 °F 11.9 °F 19.4 °F 80% 30.12 in 10.0 mi SSE 16.1 mph - N/A   Mostly Cloudy
11:14 PM 23.0 °F 9.6 °F 21.2 °F 93% 30.11 in 1.0 mi SSE 16.1 mph - N/A Snow Light Snow
11:35 PM 24.8 °F 11.9 °F 23.0 °F 93% 30.08 in 2.5 mi SE 16.1 mph - N/A Snow Light Snow
11:55 PM 24.8 °F 14.0 °F 23.0 °F 93% 30.09 in 7.0 mi SE 11.5 mph - N/A   Overcast